Weather History for Worcester, MA

Change the Weather History Date:

Friday, December 27, 2013

  Actual Average Record
Temperature  
Mean Temperature 24 °F 26 °F  
Max Temperature 29 °F 33 °F 58 °F (1895)
Min Temperature 19 °F 19 °F -3 °F (1946)
Degree Days  
Heating Degree Days 41 39  
Month to date heating degree days 999 942  
Since 1 July heating degree days 2411 2344  
Cooling Degree Days 0 0  
Month to date cooling degree days 0 0  
Year to date cooling degree days 572 471  
Moisture  
Dew Point 17 °F    
Average Humidity 75    
Maximum Humidity 92    
Minimum Humidity 58    
Precipitation  
Precipitation 0.00 in 0.11 in 1.41 in (1964)
Month to date precipitation 3.25 3.38  
Year to date precipitation 44.55 47.63  
Snow  
Snow 0.00 in 0.50 in 7.60 in (1930)
Month to date snowfall 18.9 12.2  
Since 1 July snowfall 19.4 15.0  
Snow Depth 0.00 in    
Sea Level Pressure  
Sea Level Pressure 30.24 in    
Wind  
Wind Speed 11 mph (WSW)    
Max Wind Speed 21 mph    
Max Gust Speed 23 mph    
Visibility 10 miles    
Events      
T = Trace of Precipitation, MM = Missing Value Source: NWS Daily Summary

Daily Weather History Graph

Daily Weather History Graph

Search for Another Location

Airport:

Trip Planner

Search our weather history database for the weather conditions in past years. The results will help you decide how hot, cold, wet, or windy it might be!

Date:

Astronomy

Dec. 27, 2013 Rise Set
Actual Time 7:15 AM EST 4:22 PM EST
Civil Twilight 6:43 AM EST 4:53 PM EST
Nautical Twilight 6:08 AM EST 5:29 PM EST
Astronomical Twilight 5:34 AM EST 6:03 PM EST
Moon 1:40 AM EST (12/27) 12:34 PM EST (12/27)
Length of Visible Light 10h 10m
Length of Day
9h 06m
Waning Crescent, 28% of the Moon is Illuminated
Dec 27
Waning Crescent
Jan 1
New
Jan 7
First Quarter
Jan 15
Full
Jan 24
Last Quarter

Hourly Weather History & Observations

Time (EST) Temp. Windchill Dew Point Humidity Pressure Visibility Wind Dir Wind Speed Gust Speed Precip Events Conditions
12:54 AM 21.9 °F 9.2 °F 19.0 °F 89% 30.19 in 10.0 mi West 13.8 mph - N/A   Clear
1:54 AM 21.9 °F 11.7 °F 18.0 °F 85% 30.21 in 10.0 mi West 9.2 mph - N/A   Clear
2:54 AM 21.0 °F 8.1 °F 17.1 °F 85% 30.23 in 10.0 mi West 13.8 mph - N/A   Clear
3:54 AM 19.9 °F 8.6 °F 16.0 °F 85% 30.24 in 10.0 mi West 10.4 mph - N/A   Clear
4:54 AM 21.0 °F 10.6 °F 15.1 °F 78% 30.23 in 10.0 mi West 9.2 mph - N/A   Clear
5:54 AM 19.0 °F 8.2 °F 14.0 °F 81% 30.25 in 10.0 mi WSW 9.2 mph - N/A   Clear
6:54 AM 19.0 °F 8.2 °F 15.1 °F 85% 30.26 in 10.0 mi WSW 9.2 mph - N/A   Clear
7:54 AM 19.9 °F 10.1 °F 15.1 °F 81% 30.26 in 10.0 mi WSW 8.1 mph - N/A   Clear
8:54 AM 23.0 °F 12.4 °F 16.0 °F 74% 30.27 in 10.0 mi WSW 10.4 mph - N/A   Clear
9:54 AM 26.1 °F 15.6 °F 18.0 °F 71% 30.28 in 10.0 mi WSW 11.5 mph - N/A   Clear
10:54 AM 27.0 °F 16.1 °F 18.0 °F 69% 30.26 in 10.0 mi West 12.7 mph - N/A   Overcast
11:54 AM 27.0 °F 15.6 °F 17.1 °F 66% 30.25 in 10.0 mi West 13.8 mph - N/A   Overcast
12:54 PM 28.0 °F 16.5 °F 17.1 °F 63% 30.22 in 10.0 mi WSW 15.0 mph - N/A   Overcast
1:54 PM 28.0 °F 17.5 °F 16.0 °F 61% 30.21 in 10.0 mi West 12.7 mph - N/A   Overcast
2:54 PM 28.9 °F 19.8 °F 18.0 °F 64% 30.21 in 10.0 mi West 10.4 mph - N/A   Clear
3:54 PM 28.9 °F 21.1 °F 16.0 °F 58% 30.21 in 10.0 mi WSW 8.1 mph - N/A   Clear
4:54 PM 27.0 °F 19.5 °F 16.0 °F 63% 30.23 in 10.0 mi WSW 6.9 mph - N/A   Mostly Cloudy
5:54 PM 27.0 °F 18.7 °F 18.0 °F 69% 30.23 in 10.0 mi SW 8.1 mph - N/A   Overcast
6:54 PM 27.0 °F 20.5 °F 18.0 °F 69% 30.25 in 10.0 mi WSW 5.8 mph - N/A   Overcast
7:54 PM 28.0 °F 18.1 °F 19.0 °F 69% 30.24 in 10.0 mi WSW 11.5 mph - N/A   Overcast
8:54 PM 28.0 °F 18.1 °F 19.0 °F 69% 30.25 in 10.0 mi WSW 11.5 mph - N/A   Overcast
9:54 PM 28.0 °F 18.1 °F 19.0 °F 69% 30.24 in 10.0 mi WSW 11.5 mph - N/A   Partly Cloudy
10:54 PM 27.0 °F 17.3 °F 19.0 °F 72% 30.23 in 10.0 mi West 10.4 mph - N/A   Clear
11:54 PM 27.0 °F 15.2 °F 19.0 °F 72% 30.21 in 10.0 mi West 15.0 mph - N/A   Clear